Regional Weather Roundup
Issued by NWS

Home | Current Version | Previous Version | Graphics & Text | Print | Product List | Glossary On
Versions: 1 2 3 4 5 6 7 8 9 10 11 12 13 14 15 16 17 18 19 20 21 22 23 24 25 26 27 28 29 30 31 32 33 34 35 36 37 38 39 40 41 42 43 44 45 46 47 48 49 50
000
ASUS43 KFSD 261210
RWRSD

WEATHER ROUNDUP FOR SOUTH DAKOTA
NATIONAL WEATHER SERVICE SIOUX FALLS SD
600 AM CST WED NOV 26 2014

NOTE: "FAIR" INDICATES FEW OR NO CLOUDS BELOW 12,000 FEET WITH NO
SIGNIFICANT WEATHER AND/OR OBSTRUCTIONS TO VISIBILITY.


SDZ001>005-009-010-012>017-261300-
NORTHWEST AND NORTH CENTRAL SOUTH DAKOTA

CITY           SKY/WX    TMP DP  RH WIND       PRES   REMARKS
BUFFALO          N/A     25  18  74 N3        30.10R
FAITH            N/A     22  17  81 N12       30.20S WCI  10
MOBRIDGE       CLOUDY    16  10  77 N13G23    30.22R WCI   2
$$

SDZ012>016-024>037-041>051-057-063-072>074-261300-
SOUTHWEST AND SOUTH CENTRAL SOUTH DAKOTA

CITY           SKY/WX    TMP DP  RH WIND       PRES   REMARKS
RAPID CTY ARPT CLOUDY    25  21  85 N13       30.17S WCI  14
PIERRE         CLOUDY    20  16  84 N15       30.20R WCI   6
CUSTER         MOCLDY    19  13  77 W5        30.06R WCI  12
ELLSWORTH AFB  CLOUDY    26  20  80 N13       30.17  WCI  15
PHILIP         CLOUDY    25  19  78 N10       30.22R WCI  15
PINE RIDGE     CLOUDY    25  20  81 NE16G24   30.17S WCI  12
SPEARFISH      FLURRIES  25  23  93 CALM      30.15S
WINNER         CLOUDY    22  18  85 NW20      30.17R WCI   7
$$

SDZ004>011-016>023-039-040-261300-
NORTHEAST SOUTH DAKOTA

CITY           SKY/WX    TMP DP  RH WIND       PRES   REMARKS
ABERDEEN       PTCLDY    11   6  81 N20       30.21R WCI  -7
WATERTOWN      LGT SNOW  19  14  81 N23G31    30.06R WCI   2
SISSETON         N/A     13  10  88 N21       30.17R WCI  -5
$$

SDZ017-020-022-023-036>040-048>070-261300-
SOUTHEAST SOUTH DAKOTA

CITY           SKY/WX    TMP DP  RH WIND       PRES   REMARKS
SIOUX FALLS    FLURRIES  29  25  85 N18       29.95R WCI  16
HURON          LGT SNOW  18  14  84 N25G32    30.13R FOG     WCI   0
MITCHELL       LGT SNOW  25  21  85 N29G37    30.07R FOG     WCI   8
YANKTON        CLOUDY   N/A N/A N/A NW22G32   29.94R
$$

ABBREVIATIONS USED IN REMARKS
   TC - TEMPERATURE IN CELSIUS
  WCI - WIND CHILL INDEX
   HX - HEAT INDEX
  VSB - VISIBILITY



USA.gov is the U.S. government's official web portal to all federal, state and local government web resources and services.